Torna al catalogo

THOR ABLESTAR DEB

AttivoLEO
NORAD 5785·DEBRIS·🇺🇸 United States

Lanciato Jun 29, 1961 da Cape Canaveral Space Force Station

Loading…

Prossimi Passaggi (prossime 24 ore)

TLE

AggiornatoSource: Space-Track

Epoca: Sep 14, 2026, 05:00 UTC

1 05785U 61015JZ  26257.20862874  .00000277  00000-0  29388-3 0  9996
2 05785  65.6400 168.5435 0147234 288.7723  69.7417 13.84869617298341

Traccia THOR ABLESTAR DEB in tempo reale con AllMySat

Download on the App Store